Погода Котельниково

Погода Котельниково : погода сейчас, прогноз погоды и архив. Всё, что Вы хотите узнать о погоде Котельниково!

Поиск расширенной информации на нашем сайте:

Другие новости

Новости СМИ2

Главная страница сайта

Новости сайта

02.10.2013

Напоминаем, что на нашем новом сайте вы можете получить высокодетализированные прогнозы погоды по пунктам России, СНГ и мира (включающие важные для авиации метеовеличины, такие как направление и скорость ветра, видимость, явления погоды, количество и форма облачности, нижняя и верхняя граница облачности), а также ознакомиться с разнообразными материалами по авиационной метеорологии и подборкой полезных ссылок на эту тему.

Сайт Метеоцентр.Азия посвящён разработке технологий оптимизации авиаметеорологического обслуживания, включая проектирование и перспективное создание нескольких автоматизированных авиаметеорологических систем:
- система выпуска высокодетальных прогностических карт явлений погоды для нижнего воздушного пространства по России и ближнему зарубежью;
- система верификации прогнозов TAF (выпускаемых синоптиками официальных АМСГ РФ и ближнего зарубежья) и AUTOTAF (выпускаемых сайтом Метеоцентр.Азия) - выявление ошибок, онлайн-сопоставление с фактической погодой METAR, автоматическое внесение коррективов в прогнозы при резком отклонении фактической погоды от прогноза, подсчёт оправдываемости прогнозов по элементам и в целом;
- система обработки, анализа и отображения авиаметеорологической информации для применения провайдерами метеорологической информации.


Погода Котельниково - сегодня

Время (UTC), дата Ветер
(°,м/с) 
Видим.   Явления Облачность Т
(°С)
Тd
(°С)
f(%) Тe
(°С)
Pmin
(гПа)
dP
(гПа)
Po
(мм)
O2
(г/м3)
Тmin Tmax R s Состояние
почвы
00 22.03.17 330 (СЗ) 10 км  слаб. дождь  10/10 300 м 
[Frnb|Ns]
+0.4 -0.6 93 1013.5  0.5  756  304           
03 22.03.17 350 (С) 10 км  {дождь}  10/10 600 м 
[Sc]
+0.7 -1 88 -2  1014.3  0.9  756  304  +0.3       
06 22.03.17 020 (С) 10 км    10/10 600 м 
[Sc]
+1 -1.6 83 -1  1015.1  0.7  757  304           
09 22.03.17 010 (С) 4{10}  10 км    10/10 600 м 
[Sc]
+1.3 -2.3 77 -1  1015.9  0.8  757  304           
12 22.03.17 010 (С) 10 км    10/10 600 м 
[Sc]
+1.5 -2 78 -1  1016.9  758  304           
15 22.03.17 020 (С) 10 км    10/10 600 м 
[Sc]
+1.3 -1.4 82 -1  1018.3  1.3  759  305    +1.8       
18 22.03.17 030 (СВ) 10 км    10/10 600 м 
[Sc]
+0.4 -1.4 88 -1  1019.9  1.6  760  306           
21 22.03.17 010 (С) 10 км    10/10 600 м 
[Sc]
+0.2 -1.2 90 -1  1020.7  0.7  761  307           
00 23.03.17 010 (С) 10 км    10/10 600 м 
[Sc]
+0.2 -1.5 88 -1  1021.4  0.7  761  307           
03 23.03.17 020 (С) 10 км    10/10 600 м 
[Sc]
+0.2 -1.4 89 -1  1022.5  1.1  762  307  +0.1         
06 23.03.17 030 (СВ) 10 км    10/10 600 м 
[Sc]
+1.4 -0.9 85 +1  1023.3  0.9  763  306           
09 23.03.17 040 (СВ) 10 км    10/10 600 м 
[Cu med, cong]
+4.2 +0 74 +4  1024.2  0.9  764  303           
12 23.03.17 130 (ЮВ) 10 км    10/10 600 м 
[Sc diur, vesp]
+5.1 -0.2 69 +6  1024.6  0.4  764  302           
15 23.03.17 130 (ЮВ) 10 км    10/10 600 м 
[Sc]
+5.2 +0.2 70 +5  1025.2  0.6  764  302    +5.8       
18 23.03.17 170 (Ю) 10 км    10/10 600 м 
[Sc]
+4.2 +1.1 80 +4  1026.6  1.4  765  304           
21 23.03.17 160 (Ю) 10 км    10/10 600 м 
[Sc]
+2.6 +0.6 87 +2  1026.7  0.1  765  305           
00 24.03.17 190 (Ю) 10 км    10/10 600 м 
[Sc]
+1.3 +0.1 92 +2  1027  0.2  766  307           
03 24.03.17 170 (Ю) 10 км    6/6 600 м 
[Sc]
-0.6 -1.5 94 1027.4  0.4  766  309  -0.6         
06 24.03.17 180 (Ю) 10 км    6/6 600 м 
[Cu med, cong]
+5.3 -0.2 68 +3  1027.8  0.5  766  303  -0.7         
09 24.03.17 160 (Ю) 10 км    8/0 средняя 
[Ac trans]
+9.1 +1.1 57 +9  1026.6  -1.1  765  298           
12 24.03.17 200 (Ю) 10 км    8/0 средняя 
[Ac trans]
+11 +0.9 50 +11  1024.8  -1.7  764  296           
15 24.03.17 160 (Ю) 10 км    5/0 средняя 
[Ac trans]
+10 +2.8 61 +10  1023.2  -1.6  763  296    +11.5       
18 24.03.17 170 (Ю) 10 км    ясно 
+5.5 +1.6 76 +3  1022.6  -0.7  762  301           
21 24.03.17 170 (Ю) 10 км    10/10 600 м 
[Sc]
+5.9 +1.6 74 +5  1021  -1.6  761  300           
00 25.03.17 200 (Ю) 10 км  слаб. дождь  10/10 600 м 
[Frnb|Ns]
+5.5 +2 78 +4  1018.9  -2  760  300           
Время (UTC), дата Ветер
(°,м/с) 
Видим.   Явления Облачность Т
(°С)
Тd
(°С)
f(%) Тe
(°С)
Pmin
(гПа)
dP
(гПа)
Po
(мм)
O2
(г/м3)
Тmin Tmax R s Состояние
почвы

Для получения пояснительной информации подведите курсор к названию столбца.

ПОГОДА Котельниково - архив

Всё, что Вы хотите узнать о погоде Котельниково - удобно и подробно!

Выберите нужную дату (начиная с 1 января 2015* года) и нажмите кнопку "Найти".
Будут отображены архивные сводки погоды по пункту Котельниково, начиная с указанной даты.


Отображать данные в формате CSV (для использования в таблицах Excel)


Внимание! Наш архив погоды предназначен исключительно для личного некоммерческого использования в познавательных целях. Если Вам необходимы официальные справки о состоянии погоды (для производственных, юридических, коммерческих и т.п. целей), обращайтесь в органы Росгидромета.

*Примечание: данная дата относится к архиву по метеостанциям СССР (Россия, СНГ, Балтия).
Архив по метеостанциям Зарубежной Европы и Азии (кроме Китая) хранится 10 дней, по другим регионам земного шара (Китай, Африка, Америка, Австралия, Океания) - 1 день.

Котельниково - район местоположения метеостанции


Название, широта, долгота, высота метеостанции:
Котельниково 47.6°ш. 43.2°д. 49 м над ур. моря [Российская Федерация]

Дополнительная информация

В oтличие oт бoльшинства пoгoдных сайтoв мы публикуем пoдрoбную метеoинфoрмацию в детальнoм прoфессиoнальнoм фoрмате.

Характеристики температуры и влажнoсти вoздуха измеряются на высoте 2 м в тени вдали oт зданий и деревьев.
Скoрoсть ветра измеряется на высoте 10 м (на урoвне рoста челoвека скoрoсть ветра ниже в 1.5-2 раза). Если метеoстанция нахoдится в гoрoде или в лесу, тo скoрoсть ветра занижена на 2-4 м/с пo сравнению с oткрытым местoм. Скoрoсть ветра над акватoриями крупных рек и oзёр, а также на вершинах хoлмoв на 2-5 м/с выше, чем в oбычных услoвиях.
Атмoсфернoе давление в разных тoчках местнoсти мoжет значительнo oтличаться oт давления на метеoстанции, в зависимoсти oт услoвий рельефа (при пoдъёме на 10 м давление пoнижается примернo на 1 мм рт.ст.).